Location: Lombard
(41.8800°N, 88.0080°W)
Time: 12:44:56
(UTC-06:00)

Explorer 11/Cluster Stage 4 - Visible Passes

Search period start: 07 February 2023 00:00
Search period end: 17 February 2023 00:00
Orbit: 466 x 1243 km, 28.8° (Epoch: 06 February)

Date Brightness Start Highest point End Pass type
(mag) Time Alt. Az. Time Alt. Az. Time Alt. Az.
07 Feb 9.4 03:04:28 16° SE 03:04:28 16° SE 03:06:47 10° ESE visible
07 Feb 8.5 04:46:26 24° SSW 04:49:16 30° S 04:56:06 10° ESE visible
08 Feb 9.6 02:51:57 14° ESE 02:51:57 14° ESE 02:53:12 10° ESE visible
08 Feb 8.4 04:33:55 27° SSW 04:35:42 30° S 04:42:26 10° ESE visible
08 Feb 8.9 06:17:45 10° WSW 06:23:55 26° SSW 06:30:19 10° SE visible
09 Feb 9.7 02:39:25 10° ESE 02:39:25 10° ESE 02:39:34 10° ESE visible
09 Feb 8.4 04:21:22 29° S 04:22:07 29° S 04:28:44 10° ESE visible
09 Feb 8.9 06:04:24 10° WSW 06:10:18 24° SSW 06:16:30 10° SE visible
10 Feb 8.4 04:08:49 28° S 04:08:49 28° S 04:14:58 10° SE visible
10 Feb 8.9 05:51:08 10° WSW 05:56:41 23° SSW 06:02:37 10° SSE visible
11 Feb 8.6 03:56:17 26° SSE 03:56:17 26° SSE 04:01:11 10° SE visible
11 Feb 8.9 05:38:15 11° WSW 05:43:05 21° SSW 05:48:39 10° SSE visible
12 Feb 8.8 03:43:46 22° SSE 03:43:46 22° SSE 03:47:21 10° SE visible
12 Feb 8.9 05:25:44 13° SW 05:29:29 19° SSW 05:34:35 10° SSE visible
13 Feb 9.1 03:31:17 17° SSE 03:31:17 17° SSE 03:33:29 10° SE visible
13 Feb 8.8 05:13:15 14° SW 05:15:54 17° SSW 05:20:25 10° SSE visible
14 Feb 9.4 03:18:49 12° SE 03:18:49 12° SE 03:19:34 10° SE visible
14 Feb 8.9 05:00:47 14° SSW 05:02:20 15° SSW 05:06:06 10° SSE visible
15 Feb 9.0 04:48:22 12° SSW 04:48:46 12° SSW 04:51:32 10° S visible
16 Feb 9.2 04:35:59 10° SSW 04:35:59 10° SSW 04:36:10 10° SSW visible
